Ireland West Airport Knock, Ireland

4:38 PM IST on May 21, 2018 (GMT +0100)
Connaught

Weather History for EIKN - April, 2013

Change the Weather History Date:

Thursday, April 4, 2013

  Actual Average Record
Temperature  
Mean Temperature 37 °F -  
Max Temperature 46 °F - - ()
Min Temperature 28 °F - - ()
Degree Days  
Heating Degree Days 28    
Moisture  
Dew Point 26 °F    
Average Humidity 59    
Maximum Humidity 93    
Minimum Humidity 35    
Precipitation  
Precipitation 0.00 in - - ()
Sea Level Pressure  
Sea Level Pressure 30.21 in    
Wind  
Wind Speed 9 mph ()    
Max Wind Speed 15 mph    
Max Gust Speed 26 mph    
Visibility 6.2 miles    
Events      
T = Trace of Precipitation, MM = Missing Value Source: Averaged Metar Reports

Daily Weather History Graph

Daily Weather History Graph

Search for Another Location

Airport or City:

Astronomy

Apr. 04, 2013 Rise Set
Actual Time 7:00 AM IST 8:16 PM IST
Civil Twilight 6:24 AM IST 8:53 PM IST
Nautical Twilight 5:40 AM IST 9:37 PM IST
Astronomical Twilight 4:51 AM IST 10:26 PM IST
Moon 4:09 AM IST (4/4) 1:30 PM IST (4/4)
Length of Visible Light 14h 28m
Length of Day
13h 16m
Last Quarter, 36% of the Moon is Illuminated
Apr 4
Last Quarter
Apr 10
New
Apr 18
First Quarter
Apr 25
Full
May 2
Last Quarter

Hourly Weather History & Observations

Time (IST) Temp. Windchill Dew Point Humidity Pressure Visibility Wind Dir Wind Speed Gust Speed Precip Events Conditions
1:00 AM 33 °F - 22 °F 51% 30.28 in - NNE 6.7 mph - -  
6:00 AM 30.2 °F 23.4 °F 26.6 °F 86% 30.21 in - North 6.9 mph - N/A   Clear
7:00 AM 29 °F - 26 °F 86% 30.27 in 25 mi North 6.7 mph - -   Scattered Clouds
7:00 AM 30.2 °F 23.4 °F 26.6 °F 86% 30.21 in - North 6.9 mph - N/A   Clear
8:00 AM 30.2 °F 22.6 °F 28.4 °F 93% 30.21 in 6.2 mi NNE 8.1 mph - N/A   Partly Cloudy
8:30 AM 32.0 °F 24.8 °F 28.4 °F 87% 30.21 in 6.2 mi NE 8.1 mph - N/A   Partly Cloudy
9:00 AM 33.8 °F 26.4 °F 28.4 °F 81% 30.24 in 6.2 mi NNE 9.2 mph - N/A   Partly Cloudy
9:30 AM 35.6 °F 27.5 °F 28.4 °F 75% 30.24 in 6.2 mi NNE 11.5 mph - N/A   Partly Cloudy
10:00 AM 37.4 °F 29.8 °F 28.4 °F 70% 30.24 in 6.2 mi NNE 11.5 mph - N/A   Partly Cloudy
10:30 AM 39.2 °F 32.0 °F 28.4 °F 65% 30.21 in 6.2 mi NE 11.5 mph - N/A   Partly Cloudy
11:00 AM 39.2 °F 32.0 °F 26.6 °F 61% 30.24 in 6.2 mi NE 11.5 mph - N/A   Scattered Clouds
11:30 AM 39.2 °F 32.0 °F 26.6 °F 61% 30.21 in 6.2 mi ENE 11.5 mph - N/A   Mostly Cloudy
12:00 PM 41.0 °F 33.5 °F 26.6 °F 57% 30.21 in 6.2 mi NE 13.8 mph - N/A   Mostly Cloudy
12:30 PM 41.0 °F 34.3 °F 26.6 °F 57% 30.24 in 6.2 mi ENE 11.5 mph - N/A   Mostly Cloudy
1:00 PM 44 °F - 26 °F 35% 30.26 in 28 mi East 13.4 mph - -   Mostly Cloudy
1:00 PM 44.6 °F 38.1 °F 24.8 °F 46% 30.21 in 6.2 mi East 13.8 mph - N/A   Mostly Cloudy
1:30 PM 44.6 °F 37.8 °F 24.8 °F 46% 30.21 in 6.2 mi East 15.0 mph 26.5 mph N/A   Mostly Cloudy
2:00 PM 44.6 °F 38.4 °F 26.6 °F 49% 30.21 in 6.2 mi East 12.7 mph - N/A   Mostly Cloudy
2:30 PM 44.6 °F 38.1 °F 24.8 °F 46% 30.21 in 6.2 mi ENE 13.8 mph - N/A   Mostly Cloudy
3:00 PM 42.8 °F 36.2 °F 28.4 °F 57% 30.21 in 6.2 mi NNE 12.7 mph - N/A   Mostly Cloudy
3:30 PM 44.6 °F 38.8 °F 26.6 °F 49% 30.18 in 6.2 mi NE 11.5 mph - N/A   Mostly Cloudy
4:00 PM 46.4 °F 41.5 °F 24.8 °F 43% 30.18 in 6.2 mi ENE 10.4 mph - N/A   Mostly Cloudy
4:30 PM 46.4 °F 41.5 °F 24.8 °F 43% 30.18 in 6.2 mi NE 10.4 mph - N/A   Mostly Cloudy
5:00 PM 44.6 °F 38.8 °F 26.6 °F 49% 30.18 in 6.2 mi NE 11.5 mph - N/A   Scattered Clouds
5:30 PM 44.6 °F 38.1 °F 24.8 °F 46% 30.18 in 6.2 mi NNE 13.8 mph - N/A   Scattered Clouds
6:00 PM 44.6 °F 39.7 °F 26.6 °F 49% 30.18 in 6.2 mi NNE 9.2 mph - N/A   Scattered Clouds
7:00 PM 43 °F - 25 °F 36% 30.23 in 25 mi NE 8.9 mph - -   Partly Cloudy
7:00 PM 42.8 °F 38.0 °F 24.8 °F 49% 30.18 in 6.2 mi NE 8.1 mph - N/A   Scattered Clouds